Вернуться в каталог

SL-8 R/B

АктивенLEO
NORAD 11546·ROCKET BODY·🇷🇺 Russia

Запущен Sep 25, 1979 с Plesetsk Cosmodrome

Loading…

Ближайшие Пролёты (ближайшие 24 часа)

TLE

СвежийSource: Space-Track

Эпоха: Sep 14, 2026, 13:55 UTC

1 11546U 79084J   26257.58040244  .00000066  00000-0  74438-3 0  9995
2 11546  74.0207 280.2596 0126811 285.3725 251.8237 12.22323429 95778

Отслеживайте SL-8 R/B в реальном времени с AllMySat

Download on the App Store